Date String (YYYY-MM-DD hh:mm:ss) UTC,Instrument flags,absolute air pressure of the measurement (hPa),sample flow rate (lpm),inlet stack bypass flow (lpm),air temperature of the measurement (°C),ambient temperature measured by the external sensor (°C),aerosol sample conditioner tube jacket temperature (°C),OPC LED temperature (°C),internal box temperature (°C),relative humidity of the measurement (%),span deviation,mass concentration of particles derived from Lorenz-Mie calculation of OPC scattering (μg/m³),mass concentration of particles derived from Lorenz-Mie calculation of OPC scattering (μg/m³),mass concentration of particles derived from Lorenz-Mie calculation of OPC scattering (μg/m³)
DateTimeUTC,F1_M11,P_M11,Q1_M11,Q2_M11,T1_M11,T2_M11,T3_M11,T4_M11,T5_M11,U1_M11,ZSPAN_M11,X2_M11,X0_M11,X1_M11
2024-05-01 11:00:00,SystemResetWarning,0824.8,5.01,000.00,024.9,024.1,000.0,033.5,026.8,014.6,0000.0,0003.88,0012.85,0002.29
2024-05-01 11:01:00,SystemResetWarning,0824.7,4.99,000.00,024.9,024.1,000.0,033.5,026.8,014.5,0000.0,0003.85,0013.34,0002.29
2024-05-01 11:02:00,SystemResetWarning,0824.7,5.00,000.00,024.9,024.1,000.0,033.5,026.8,014.3,0000.0,0003.77,0013.64,0002.27
2024-05-01 11:03:00,SystemResetWarning,0824.7,4.99,000.00,024.9,024.1,000.0,033.5,026.8,014.4,0000.0,0003.66,0013.78,0002.25
2024-05-01 11:04:00,SystemResetWarning,0824.7,5.00,000.00,024.9,024.1,000.0,033.5,026.8,014.4,0000.0,0003.63,0013.58,0002.26
2024-05-01 11:05:00,SystemResetWarning,0824.7,5.00,000.00,024.9,024.1,000.0,033.5,026.8,014.2,0000.0,0003.65,0013.95,0002.26
2024-05-01 11:06:00,SystemResetWarning,0824.7,5.01,000.00,024.9,024.1,000.0,033.5,026.8,014.2,0000.0,0003.70,0013.82,0002.26
2024-05-01 11:07:00,SystemResetWarning,0824.7,5.01,000.00,024.9,024.1,000.0,033.5,026.8,014.4,0000.0,0003.72,0012.49,0002.27
2024-05-01 11:08:00,SystemResetWarning,0824.6,5.00,000.00,024.9,024.1,000.0,033.5,026.8,014.5,0000.0,0003.71,0012.36,0002.27
2024-05-01 11:09:00,SystemResetWarning,0824.7,5.01,000.00,024.9,024.1,000.0,033.5,026.8,014.6,0000.0,0003.70,0012.62,0002.28
2024-05-01 11:10:00,SystemResetWarning,0824.7,5.00,000.00,024.9,024.1,000.0,033.5,026.8,014.6,0000.0,0003.70,0012.76,0002.30
2024-05-01 11:11:00,SystemResetWarning,0824.7,5.00,000.00,024.9,024.1,000.0,033.5,026.8,014.6,0000.0,0003.78,0013.15,0002.29
2024-05-01 11:12:00,SystemResetWarning,0824.8,5.00,000.00,024.9,024.1,000.0,033.5,026.8,014.5,0000.0,0003.78,0013.45,0002.27
2024-05-01 11:13:00,SystemResetWarning,0824.7,4.99,000.00,024.9,024.1,000.0,033.5,026.8,014.5,0000.0,0003.87,0014.05,0002.29
2024-05-01 11:14:00,SystemResetWarning,0824.8,4.99,000.00,024.9,024.1,000.0,033.5,026.8,014.6,0000.0,0003.96,0014.58,0002.31
2024-05-01 11:15:00,SystemResetWarning,0824.7,5.01,000.00,024.9,024.1,000.0,033.5,026.8,014.4,0000.0,0004.00,0015.77,0002.32
2024-05-01 11:16:00,SystemResetWarning,0824.7,5.01,000.00,024.9,024.1,000.0,033.5,026.8,014.4,0000.0,0004.01,0015.51,0002.33
2024-05-01 11:17:00,SystemResetWarning,0824.7,5.00,000.00,024.9,024.1,000.0,033.5,026.8,014.4,0000.0,0004.18,0017.70,0002.36
2024-05-01 11:18:00,SystemResetWarning,0824.7,5.01,000.00,024.9,024.1,000.0,033.5,026.8,014.4,0000.0,0004.30,0019.94,0002.39
2024-05-01 11:19:00,SystemResetWarning,0824.7,5.00,000.00,024.9,024.1,000.0,033.5,026.7,014.3,0000.0,0004.38,0021.22,0002.38
2024-05-01 11:20:00,SystemResetWarning,0824.7,5.00,000.00,024.9,024.1,000.0,033.5,026.8,014.4,0000.0,0004.48,0021.35,0002.40
2024-05-01 11:21:00,SystemResetWarning,0824.7,5.00,000.00,024.9,024.1,000.0,033.5,026.8,014.4,0000.0,0004.65,0022.83,0002.45
2024-05-01 11:22:00,SystemResetWarning,0824.7,5.00,000.00,024.9,024.1,000.0,033.5,026.8,014.5,0000.0,0004.74,0024.11,0002.49
2024-05-01 11:23:00,SystemResetWarning,0824.7,4.99,000.00,024.9,024.1,000.0,033.5,026.7,014.4,0000.0,0004.85,0024.08,0002.56
2024-05-01 11:24:00,SystemResetWarning,0824.7,4.99,000.00,024.9,024.1,000.0,033.5,026.8,014.3,0000.0,0004.91,0023.85,0002.59
2024-05-01 11:25:00,SystemResetWarning,0824.7,5.01,000.00,024.9,024.1,000.0,033.5,026.8,014.3,0000.0,0004.96,0024.26,0002.62
2024-05-01 11:26:00,SystemResetWarning,0824.7,5.01,000.00,024.9,024.1,000.0,033.5,026.8,014.3,0000.0,0004.95,0024.17,0002.63
2024-05-01 11:27:00,SystemResetWarning,0824.7,5.01,000.00,024.9,024.1,000.0,033.5,026.8,014.4,0000.0,0004.98,0026.11,0002.64
2024-05-01 11:28:00,SystemResetWarning,0824.7,4.99,000.00,024.9,024.1,000.0,033.5,026.8,014.5,0000.0,0004.84,0026.72,0002.64
2024-05-01 11:29:00,SystemResetWarning,0824.7,4.99,000.00,024.9,024.1,000.0,033.5,026.8,014.5,0000.0,0004.68,0024.67,0002.63
2024-05-01 11:30:00,SystemResetWarning,0824.7,5.00,000.00,024.9,024.1,000.0,033.5,026.8,014.4,0000.0,0004.62,0023.76,0002.63
2024-05-01 11:31:00,SystemResetWarning,0824.7,5.01,000.00,024.9,024.1,000.0,033.5,026.8,014.5,0000.0,0004.59,0023.73,0002.62
2024-05-01 11:32:00,SystemResetWarning,0824.6,5.01,000.00,024.9,024.1,000.0,033.5,026.7,014.6,0000.0,0004.54,0022.89,0002.60
2024-05-01 11:33:00,SystemResetWarning,0824.5,4.99,000.00,024.9,024.1,000.0,033.5,026.7,014.6,0000.0,0004.41,0022.62,0002.58
2024-05-01 11:34:00,SystemResetWarning,0824.5,4.99,000.00,024.9,024.1,000.0,033.5,026.7,014.8,0000.0,0004.31,0021.60,0002.54
2024-05-01 11:35:00,SystemResetWarning,0824.5,5.00,000.00,024.9,024.1,000.0,033.5,026.7,014.8,0000.0,0004.20,0021.11,0002.49
2024-05-01 11:36:00,SystemResetWarning,0824.5,5.01,000.00,024.9,024.1,000.0,033.5,026.7,014.8,0000.0,0004.11,0020.83,0002.48
2024-05-01 11:37:00,SystemResetWarning,0824.5,5.01,000.00,024.9,024.1,000.0,033.4,026.7,014.8,0000.0,0004.11,0021.56,0002.46
2024-05-01 11:38:00,SystemResetWarning,0824.4,4.98,000.00,024.9,024.1,000.0,033.5,026.7,014.9,0000.0,0004.11,0020.16,0002.46
2024-05-01 11:39:00,SystemResetWarning,0824.4,4.99,000.00,024.9,024.1,000.0,033.5,026.7,015.0,0000.0,0004.13,0016.96,0002.44
2024-05-01 11:40:00,SystemResetWarning,0824.3,5.02,000.00,024.9,024.1,000.0,033.4,026.7,015.2,0000.0,0004.16,0016.89,0002.43
2024-05-01 11:41:00,SystemResetWarning,0824.4,5.01,000.00,024.8,024.1,000.0,033.4,026.7,015.5,0000.0,0004.15,0016.81,0002.43
2024-05-01 11:42:00,SystemResetWarning,0824.4,4.99,000.00,024.8,024.1,000.0,033.4,026.7,015.5,0000.0,0004.14,0016.04,0002.43
2024-05-01 11:43:00,SystemResetWarning,0824.4,5.00,000.00,024.8,024.1,000.0,033.4,026.7,015.5,0000.0,0004.09,0015.74,0002.42
2024-05-01 11:44:00,SystemResetWarning,0824.5,5.00,000.00,024.8,024.1,000.0,033.4,026.7,015.5,0000.0,0004.07,0014.55,0002.41
2024-05-01 11:45:00,SystemResetWarning,0824.5,5.01,000.00,024.8,024.1,000.0,033.4,026.7,015.6,0000.0,0004.07,0014.13,0002.41
2024-05-01 11:46:00,SystemResetWarning,0824.5,5.00,000.00,024.8,024.0,000.0,033.4,026.7,015.6,0000.0,0004.07,0014.13,0002.42
2024-05-01 11:47:00,SystemResetWarning,0824.4,5.01,000.00,024.8,024.0,000.0,033.4,026.7,015.6,0000.0,0004.08,0013.96,0002.40
2024-05-01 11:48:00,SystemResetWarning,0824.4,4.99,000.00,024.8,024.0,000.0,033.4,026.7,015.6,0000.0,0004.03,0012.40,0002.39
2024-05-01 11:49:00,SystemResetWarning,0824.5,4.99,000.00,024.8,024.0,000.0,033.4,026.7,015.4,0000.0,0004.03,0012.28,0002.38
2024-05-01 11:50:00,SystemResetWarning,0824.5,5.01,000.00,024.8,024.0,000.0,033.4,026.7,015.3,0000.0,0004.04,0012.52,0002.37
2024-05-01 11:51:00,SystemResetWarning,0824.5,5.02,000.00,024.8,024.0,000.0,033.4,026.6,015.3,0000.0,0004.03,0012.71,0002.38
2024-05-01 11:52:00,SystemResetWarning,0824.5,5.01,000.00,024.8,024.0,000.0,033.4,026.6,015.2,0000.0,0004.06,0013.03,0002.38
2024-05-01 11:53:00,SystemResetWarning,0824.4,4.99,000.00,024.8,024.0,000.0,033.4,026.6,015.2,0000.0,0004.04,0013.38,0002.36
2024-05-01 11:54:00,SystemResetWarning,0824.4,4.99,000.00,024.8,024.0,000.0,033.4,026.6,015.3,0000.0,0004.01,0013.10,0002.36
2024-05-01 11:55:00,SystemResetWarning,0824.3,5.01,000.00,024.7,023.9,000.0,033.4,026.6,015.2,0000.0,0004.06,0012.98,0002.37
2024-05-01 11:56:00,SystemResetWarning,0824.4,5.01,000.00,024.7,023.9,000.0,033.3,026.6,015.2,0000.0,0004.06,0012.76,0002.36
2024-05-01 11:57:00,SystemResetWarning,0824.4,5.00,000.00,024.7,023.9,000.0,033.3,026.6,015.2,0000.0,0004.09,0012.93,0002.37
2024-05-01 11:58:00,SystemResetWarning,0824.4,4.98,000.00,024.7,023.9,000.0,033.3,026.6,015.2,0000.0,0004.10,0013.11,0002.38
2024-05-01 11:59:00,SystemResetWarning,0824.3,5.00,000.00,024.7,023.9,000.0,033.3,026.6,015.2,0000.0,0004.12,0013.16,0002.39
